Simultaneous Nadir Overpasses (SNOs) Predictions

Prediction of SNOs between GOES-17 and TERRA Satellite Orbit:

Table of predicted SNOs for the next 14.0 days since TLE Epoch: 11/7/2020
Index Date Time (GOES-17) GOES-17 Lat,Lon TERRA Lat,Lon Distance(km) Time Diff (sec)
1 11/08/2020 07:21:58 0.04,-137.23 0.84,-133.39 435.43 80
2 11/08/2020 19:43:14 -0.03,-137.23 0.23,-138.56 150.09 80
3 11/10/2020 19:33:42 -0.03,-137.23 -0.37,-135.60 185.97 80
4 11/11/2020 07:55:06 0.03,-137.23 -0.74,-140.79 405.16 80
5 11/13/2020 07:42:55 0.03,-137.22 -0.07,-137.84 69.93 80
6 11/15/2020 07:28:03 0.03,-137.20 0.54,-134.88 264.74 80
7 11/15/2020 19:49:18 -0.02,-137.20 0.59,-140.03 321.53 80
8 11/17/2020 19:39:46 -0.02,-137.18 -0.02,-137.07 12.34 80
9 11/19/2020 19:27:34 -0.01,-137.15 -0.64,-134.11 345.44 80
10 11/20/2020 07:48:58 0.01,-137.14 -0.46,-139.30 246.23 80
